Regional Weather Roundup
Issued by NWS Northern Indiana

Home | Current Version | Previous Version | Text Only | Print | Product List | Glossary Off
Versions: 1 2 3 4 5 6 7 8 9 10 11 12 13 14 15 16 17 18 19 20 21 22 23 24 25 26 27 28 29 30 31 32 33 34 35 36 37 38 39 40 41 42 43 44 45 46 47 48 49 50

000
ASUS43 KIWX 302210
RWRIWX

KIWX WEATHER ROUNDUP
NATIONAL WEATHER SERVICE NORTHERN INDIANA
600 PM EDT THU OCT 30 2014

NOTE: "FAIR" INDICATES FEW OR NO CLOUDS BELOW 12,000 FEET WITH NO
SIGNIFICANT WEATHER AND/OR OBSTRUCTIONS TO VISIBILITY.

* THESE STATIONS ARE NOT UNDER NWS QUALITY CONTROL. THEY ALSO MAY NOT
  REPORT WEATHER SUCH AS PRECIPITATION OR FOG.

INZ001>027-302300-
NORTHERN INDIANA

CITY           SKY/WX    TMP DP  RH WIND       PRES   REMARKS
GARY*          CLOUDY    52  34  50 W10       30.07S
VALPARAISO     CLOUDY    49  34  56 SW7       30.07S
MICHIGAN CITY* CLOUDY    48  32  53 CALM      30.07S
LAPORTE*       CLOUDY    50  36  58 SW7       30.07F
KNOX*          CLOUDY    50  33  51 W3        30.06F
SOUTH BEND     CLOUDY    50  33  52 W6        30.08S
ELKHART*       CLOUDY    48  32  53 W9        30.07R
GOSHEN         CLOUDY    50  34  54 SW6       30.06S
MONTICELLO*    CLOUDY    50  35  58 CALM      30.06F
LOGANSPORT*    CLOUDY    48  36  61 W5        30.07F
ROCHESTER*     MOCLDY    52  34  50 W6        30.07S
WARSAW*        MOCLDY    48  34  57 SW5       30.06F
ANGOLA*        CLOUDY    48  34  57 W5        30.06S
FORT WAYNE     CLOUDY    49  36  61 CALM      30.08F
HUNTINGTON*    MOCLDY   N/A N/A N/A CALM      30.07S
PERU/GRISSOM   CLOUDY    50  40  69 SW3       30.06S
MARION*        MOCLDY    50  32  49 CALM      30.08S

$$
INZ028>050-302300-
CENTRAL INDIANA

CITY           SKY/WX    TMP DP  RH WIND       PRES   REMARKS
LAFAYETTE      CLOUDY    50  36  58 CALM      30.06F
KOKOMO*        CLOUDY    52  34  50 S5        30.07F
MUNCIE*        PTCLDY    50  35  56 CALM      30.07S
INDIANAPOLIS   MOCLDY    52  31  44 CALM      30.06S

$$
MIZ043>046-050>051-056>058-064>065-071>073-077>080-302300-
SOUTHWEST LOWER MICHIGAN

CITY           SKY/WX    TMP DP  RH WIND       PRES   REMARKS
BATTLE CREEK   CLOUDY    48  35  60 SW6       30.06S
BENTON HARBOR  CLOUDY    48  36  63 W8        30.06S
COLDWATER*     CLOUDY    49  36  62 SW5       30.06S
HILLSDALE*     CLOUDY    47  35  62 SW3       30.06S
HOLLAND        CLOUDY    49  38  65 W10       30.06S
GRAND RAPIDS   CLOUDY    48  37  65 W14       30.05S
KALAMAZOO      CLOUDY    49  34  56 SW5       30.06S
STURGIS*       MOCLDY    46  36  66 SW6       30.06S
THREE RIVERS*  CLOUDY    51  35  54 CALM      30.06S

$$
OHZ001>008-015>018-024>025-302300-
NORTHWEST OHIO

CITY           SKY/WX    TMP DP  RH WIND       PRES   REMARKS
WAUSEON*       CLOUDY    48  37  66 SW5       30.08S
DEFIANCE       CLOUDY    48  35  60 S3        30.08F
FINDLAY        CLOUDY    49  33  54 SW5       30.07S
TOLEDO EXPRESS CLOUDY    48  35  60 W7        30.07F
TOLEDO METCALF CLOUDY    50  34  54 W5        30.09S
LIMA           CLOUDY    48  34  58 W7        30.08S

$$
AND FOR LAKE MICHIGAN COASTAL AND OPEN LAKE BUOY OBSERVATIONS

STATION/POSITION TEMP    WIND        PRES    VSBY  WAVE
                 AIR SEA DIR/SP/G                  HT/PER
                 (F)     (DEG/KT/KT) (MB)    (MI)  (FT/S)
CALUMET HARBOR    50     210/  5/  9 1016.7F
MICHIGAN CITY     50     230/  6/  9   N/A
SAINT JOSEPH      50     200/  8/ 12 1018.6R
SOUTH LAKE BUOY   49 53  220/  8/ 10 1018.1R         2/ 4

$$
&&



USA.gov is the U.S. government's official web portal to all federal, state and local government web resources and services.